User: anonymous   Login
Location: Ocean City
(38.3360°N, 75.0850°W)
Time: 16:49:03
(UTC-04:00)
Language:

M-CUBED/EXP-1 PRIME - Orbit

View from above orbital plane
View from above orbital plane
View from above satellite
View from above satellite

Ground track
Ground track

The orbit data is extracted from the following two-line orbital elements,

1 37855U 11061F   19140.88692248 +.00001098 +00000-0 +62798-4 0  9993
2 37855 101.7183 021.6982 0173759 162.1684 198.5729 15.05350389411971
Epoch (UTC): 20 May 2019 21:17:10
Eccentricity: 0.0173759
inclination: 101.7183°
perigee height: 430 km
apogee height: 671 km
right ascension of ascending node: 21.6982°
argument of perigee: 162.1684°
revolutions per day: 15.05350389
mean anomaly at epoch: 198.5729°
orbit number at epoch: 41197

The dashed part of the orbit path shows where the satellite is in the earth's shadow,  

DLR